Location: Bon Acre
(42.6442°N, 73.5758°W)
Time: 02:32:32
(UTC+00:00)

UNK - Pass Details

Date: 14 December 2025
Orbit: 654 x 673 km, 98.4° (Epoch: 12 January)

Event Time Altitude Azimuth Distance (km) Brightness Sun altitude
Rises 22:19:23 0° 11° (N) 3,016 6.8 -10.4°
Reaches altitude 10° 22:21:38 10° 10° (N) 2,095 6.0 -10.7°
Maximum altitude 22:26:12 76° 286° (WNW) 687 3.9 -11.5°
Drops below altitude 10° 22:30:42 10° 201° (SSW) 2,067 6.8 -12.3°
Sets 22:32:54 0° 199° (SSW) 2,972 7.7 -12.7°
